Location: *
(35.8942°N, 23.3025°E)
Time: 21:35:19
(UTC+00:00)

Cosmos 2237 Rocket - Pass Details

Date: 21 September 2021
Orbit: 833 x 851 km, 71.0° (Epoch: 22 October)

Event Time Altitude Azimuth Distance (km) Brightness Sun altitude
Exits shadow 02:49:34 29° 272° (W) 1,515 3.0 -17.7°
Maximum altitude 02:50:58 32° 299° (WNW) 1,407 3.0 -17.5°
Drops below altitude 10° 02:56:02 10° 2° (N) 2,478 4.8 -16.5°
Sets 02:58:46 0° 12° (NNE) 3,419 5.7 -15.9°
